This is the latest recevied weather packets stored in our database for station/object K3PPP. If no packets are shown the sender has not sent any weather packets the latest 1 day(s).
| Time | Temp. | Humidity | Pressure | Rain* | Wind** | Luminosity | Snow |
|---|---|---|---|---|---|---|---|
| 1778078936 | 12.78° C | 99% | 1007.9 hPa | 0 mm | - | 57 W/m² | - |
| 1778078632 | 12.78° C | 99% | 1008.1 hPa | 0 mm | - | 52 W/m² | - |
| 1778078027 | 12.78° C | 99% | 1007.4 hPa | 0 mm | - | 63 W/m² | - |
| 1778077726 | 12.78° C | 99% | 1007.6 hPa | 0 mm | - | 49 W/m² | - |
| 1778076819 | 12.78° C | 99% | 1007.5 hPa | 0 mm | - | 68 W/m² | - |
| 1778076517 | 12.78° C | 99% | 1007.3 hPa | 0 mm | - | 67 W/m² | - |
| 1778075607 | 12.78° C | 99% | 1007.5 hPa | 0 mm | - | 101 W/m² | - |
| 1778075000 | 12.22° C | 99% | 1007.6 hPa | 0 mm | - | 75 W/m² | - |
| 1778074394 | 12.22° C | 99% | 1007.6 hPa | 0 mm | - | 39 W/m² | - |
| 1778073788 | 12.22° C | 99% | 1007.9 hPa | 0 mm | - | 42 W/m² | - |
| 1778073486 | 12.22° C | 99% | 1008 hPa | 1.27 mm | - | 37 W/m² | - |
| 1778071971 | 12.22° C | 99% | 1008 hPa | 1.78 mm | - | 43 W/m² | - |
| 1778070156 | 11.67° C | 99% | 1007.9 hPa | 0 mm | - | 36 W/m² | - |
| 1778069854 | 11.67° C | 99% | 1008 hPa | 0 mm | - | 29 W/m² | - |
| 1778069248 | 11.67° C | 99% | 1007.9 hPa | 0 mm | - | 19 W/m² | - |
| 1778068039 | 11.67° C | 99% | 1008.1 hPa | 0 mm | - | 23 W/m² | - |
| 1778067736 | 11.67° C | 99% | 1007.5 hPa | 0 mm | - | 20 W/m² | - |
| 1778066223 | 11.11° C | 99% | 1007.5 hPa | 1.27 mm | - | 51 W/m² | - |
| 1778065921 | 11.11° C | 99% | 1008 hPa | 1.27 mm | - | 25 W/m² | - |
| 1778065012 | 11.11° C | 99% | 1008.1 hPa | 1.78 mm | - | 5 W/m² | - |
| 1778064104 | 11.11° C | 99% | 1007.9 hPa | 3.05 mm | - | 3 W/m² | - |
| 1778063801 | 11.11° C | 99% | 1007.8 hPa | 4.83 mm | - | 3 W/m² | - |
| 1778063196 | 11.11° C | 98% | 1008 hPa | 6.1 mm | - | 1 W/m² | - |
| 1778062893 | 11.11° C | 98% | 1007.9 hPa | 6.6 mm | - | 1 W/m² | - |
| 1778061985 | 11.11° C | 97% | 1008 hPa | 1.78 mm | - | 0 W/m² | - |
* Rain latest hour (hover to see other rain measurements)
** Current wind speed in m/s (hover to see current wind gust speed)